TimeCDT,TemperatureF,Dew PointF,Humidity,Sea Level PressureIn,VisibilityMPH,Wind Direction,Wind SpeedMPH,Gust SpeedMPH,PrecipitationIn,Events,Conditions,WindDirDegrees,DateUTC
12:15 AM,49.6,47.5,92,29.84,10.0,NW,17.3,25.3,N/A,,Overcast,320,2013-03-24 05:15:00
12:35 AM,49.8,47.1,90,29.84,10.0,NNW,17.3,24.2,N/A,,Overcast,330,2013-03-24 05:35:00
12:55 AM,49.8,46.8,89,29.85,10.0,NW,15.0,25.3,N/A,,Overcast,320,2013-03-24 05:55:00
1:15 AM,48.4,43.9,84,29.87,10.0,NNW,13.8,27.6,N/A,,Overcast,330,2013-03-24 06:15:00
1:35 AM,48.2,43.7,84,29.87,10.0,NNW,20.7,24.2,N/A,,Overcast,330,2013-03-24 06:35:00
1:55 AM,47.3,41.7,81,29.88,10.0,NNW,21.9,27.6,N/A,,Overcast,330,2013-03-24 06:55:00
2:15 AM,46.6,41.9,84,29.89,10.0,NW,19.6,25.3,N/A,,Overcast,320,2013-03-24 07:15:00
2:35 AM,45.7,40.3,81,29.90,10.0,NW,20.7,28.8,N/A,,Overcast,320,2013-03-24 07:35:00
2:55 AM,44.1,38.1,80,29.91,10.0,NW,23.0,31.1,N/A,,Mostly Cloudy,310,2013-03-24 07:55:00
3:15 AM,43.3,36.9,78,29.92,10.0,NW,21.9,31.1,N/A,,Overcast,310,2013-03-24 08:15:00
3:35 AM,42.8,35.8,76,29.94,10.0,NW,16.1,34.5,N/A,,Overcast,310,2013-03-24 08:35:00
3:55 AM,42.3,34.0,72,29.95,10.0,NW,15.0,32.2,N/A,,Overcast,310,2013-03-24 08:55:00
4:15 AM,42.3,33.8,72,29.96,10.0,WNW,16.1,31.1,N/A,,Overcast,300,2013-03-24 09:15:00
4:35 AM,41.2,32.5,71,29.96,10.0,NW,18.4,26.5,N/A,,Overcast,310,2013-03-24 09:35:00
4:55 AM,41.0,32.2,71,29.97,10.0,NW,23.0,31.1,N/A,,Mostly Cloudy,310,2013-03-24 09:55:00
5:15 AM,39.7,31.6,73,29.98,10.0,WNW,19.6,29.9,N/A,,Mostly Cloudy,300,2013-03-24 10:15:00
5:35 AM,39.0,30.9,73,29.99,10.0,WNW,16.1,26.5,N/A,,Overcast,300,2013-03-24 10:35:00
5:55 AM,38.7,30.4,72,30.00,10.0,NW,17.3,25.3,N/A,,Overcast,310,2013-03-24 10:55:00
6:15 AM,38.3,29.8,72,30.00,10.0,NW,12.7,27.6,N/A,,Overcast,310,2013-03-24 11:15:00
6:55 AM,38.3,28.4,68,30.04,10.0,NW,18.4,24.2,N/A,,Overcast,310,2013-03-24 11:55:00
7:15 AM,37.9,27.7,67,30.05,10.0,NW,15.0,28.8,N/A,,Overcast,310,2013-03-24 12:15:00
7:35 AM,37.4,26.4,65,30.06,10.0,WNW,13.8,25.3,N/A,,Scattered Clouds,300,2013-03-24 12:35:00
7:55 AM,37.8,26.6,64,30.07,10.0,WNW,16.1,20.7,N/A,,Mostly Cloudy,300,2013-03-24 12:55:00
8:15 AM,38.7,26.6,62,30.08,10.0,NW,18.4,32.2,N/A,,Overcast,320,2013-03-24 13:15:00
8:35 AM,38.7,27.1,63,30.09,10.0,NW,20.7,27.6,N/A,,Overcast,310,2013-03-24 13:35:00
8:55 AM,38.5,26.8,63,30.10,10.0,WNW,19.6,25.3,N/A,,Overcast,300,2013-03-24 13:55:00
9:15 AM,38.5,26.1,61,30.11,10.0,NW,24.2,32.2,N/A,,Overcast,320,2013-03-24 14:15:00
9:35 AM,38.5,26.1,61,30.12,10.0,NW,19.6,28.8,N/A,,Overcast,310,2013-03-24 14:35:00
9:55 AM,39.0,26.4,61,30.13,10.0,NW,15.0,28.8,N/A,,Overcast,310,2013-03-24 14:55:00
10:15 AM,38.3,26.1,61,30.14,10.0,WNW,21.9,26.5,N/A,,Overcast,290,2013-03-24 15:15:00
10:35 AM,39.6,26.2,59,30.15,10.0,WNW,20.7,27.6,N/A,,Overcast,300,2013-03-24 15:35:00
10:55 AM,40.3,26.1,57,30.15,10.0,NW,18.4,27.6,N/A,,Mostly Cloudy,320,2013-03-24 15:55:00
11:15 AM,42.6,26.2,52,30.15,10.0,NW,23.0,27.6,N/A,,Mostly Cloudy,320,2013-03-24 16:15:00
11:35 AM,43.3,25.0,48,30.15,10.0,NW,23.0,28.8,N/A,,Mostly Cloudy,310,2013-03-24 16:35:00
11:55 AM,43.3,24.8,48,30.15,10.0,NW,23.0,29.9,N/A,,Scattered Clouds,320,2013-03-24 16:55:00
12:15 PM,45.1,25.9,47,30.15,10.0,NW,15.0,29.9,N/A,,Scattered Clouds,310,2013-03-24 17:15:00
12:35 PM,45.7,24.6,44,30.15,10.0,NW,25.3,32.2,N/A,,Scattered Clouds,320,2013-03-24 17:35:00
12:55 PM,46.9,25.3,43,30.14,10.0,NNW,21.9,32.2,N/A,,Clear,330,2013-03-24 17:55:00
1:15 PM,47.3,25.0,42,30.14,10.0,NNW,17.3,27.6,N/A,,Clear,330,2013-03-24 18:15:00
1:35 PM,48.7,25.9,41,30.13,10.0,NNW,19.6,26.5,N/A,,Clear,330,2013-03-24 18:35:00
1:55 PM,48.7,24.4,39,30.13,10.0,NNW,19.6,26.5,N/A,,Clear,330,2013-03-24 18:55:00
2:15 PM,49.8,25.3,39,30.12,10.0,NW,20.7,26.5,N/A,,Clear,310,2013-03-24 19:15:00
2:35 PM,50.2,24.6,37,30.12,10.0,NW,13.8,26.5,N/A,,Clear,320,2013-03-24 19:35:00
2:55 PM,50.7,24.6,36,30.11,10.0,NW,18.4,26.5,N/A,,Clear,320,2013-03-24 19:55:00
3:15 PM,50.9,24.1,35,30.11,10.0,NW,18.4,27.6,N/A,,Clear,320,2013-03-24 20:15:00
3:35 PM,51.1,24.1,35,30.10,10.0,NW,18.4,26.5,N/A,,Clear,320,2013-03-24 20:35:00
3:55 PM,51.8,24.4,34,30.10,10.0,NNW,19.6,26.5,N/A,,Clear,330,2013-03-24 20:55:00
4:15 PM,51.8,23.9,34,30.09,10.0,NNW,20.7,28.8,N/A,,Clear,330,2013-03-24 21:15:00
4:35 PM,51.8,23.5,33,30.08,10.0,NNW,18.4,26.5,N/A,,Clear,340,2013-03-24 21:35:00
4:55 PM,52.0,23.7,33,30.08,10.0,NNW,19.6,26.5,N/A,,Clear,330,2013-03-24 21:55:00
5:15 PM,51.8,23.0,33,30.08,10.0,NW,15.0,25.3,N/A,,Clear,320,2013-03-24 22:15:00
5:35 PM,52.0,22.8,32,30.08,10.0,NW,15.0,21.9,N/A,,Clear,320,2013-03-24 22:35:00
5:55 PM,51.8,22.5,32,30.08,10.0,NW,19.6,24.2,N/A,,Clear,320,2013-03-24 22:55:00
6:15 PM,51.6,22.5,32,30.08,10.0,NNW,19.6,-,N/A,,Clear,340,2013-03-24 23:15:00
6:35 PM,50.9,22.3,33,30.08,10.0,NW,16.1,-,N/A,,Clear,320,2013-03-24 23:35:00
6:55 PM,50.2,22.5,34,30.09,10.0,NNW,15.0,21.9,N/A,,Clear,340,2013-03-24 23:55:00
7:15 PM,49.6,22.3,34,30.09,10.0,NNW,13.8,18.4,N/A,,Clear,330,2013-03-25 00:15:00
7:35 PM,48.4,21.7,35,30.10,10.0,NNW,13.8,-,N/A,,Clear,340,2013-03-25 00:35:00
7:55 PM,47.3,22.5,38,30.10,10.0,NNW,10.4,-,N/A,,Clear,340,2013-03-25 00:55:00
8:15 PM,45.9,23.0,41,30.11,10.0,NNW,6.9,-,N/A,,Clear,330,2013-03-25 01:15:00
8:35 PM,44.8,23.5,43,30.12,10.0,NNW,8.1,-,N/A,,Clear,330,2013-03-25 01:35:00
8:55 PM,43.2,24.4,48,30.13,10.0,NNW,8.1,-,N/A,,Clear,340,2013-03-25 01:55:00
9:15 PM,44.1,22.1,42,30.14,10.0,NNW,10.4,-,N/A,,Clear,340,2013-03-25 02:15:00
9:35 PM,43.0,21.0,42,30.15,10.0,NNW,10.4,-,N/A,,Clear,340,2013-03-25 02:35:00
9:55 PM,43.3,18.3,37,30.16,10.0,NNW,10.4,-,N/A,,Clear,340,2013-03-25 02:55:00
10:15 PM,42.3,18.7,39,30.16,10.0,NNW,6.9,-,N/A,,Clear,330,2013-03-25 03:15:00
10:35 PM,39.6,20.5,46,30.17,10.0,NW,5.8,-,N/A,,Clear,320,2013-03-25 03:35:00
10:55 PM,39.7,19.9,45,30.18,10.0,NNW,5.8,-,N/A,,Clear,330,2013-03-25 03:55:00
11:15 PM,38.7,21.7,51,30.18,10.0,North,9.2,-,N/A,,Clear,350,2013-03-25 04:15:00
11:35 PM,39.9,21.0,47,30.19,10.0,North,10.4,-,N/A,,Clear,350,2013-03-25 04:35:00
11:55 PM,39.9,21.4,48,30.19,10.0,North,9.2,-,N/A,,Clear,360,2013-03-25 04:55:00